| time (UTC) | temp F | wind direction | speed knots | gust knots | rain 1hr in | rain 24hr in | rain mn in | humidity % | barometer mb |
| 20260502194528 | 63 | 317 | 4.3 | 9.6 | 0.00 | 0.00 | 0.00 | 36 | 1017.0 |
| 20260502193029 | 63 | 317 | 5.2 | 10.4 | 0.00 | 0.00 | 0.00 | 35 | 1017.5 |
| 20260502191528 | 63 | 316 | 7.8 | 12.2 | 0.00 | 0.00 | 0.00 | 35 | 1017.6 |
| 20260502190029 | 62 | 316 | 7.0 | 13.9 | 0.00 | 0.00 | 0.00 | 37 | 1017.7 |
| 20260502184529 | 62 | 316 | 9.6 | 13.0 | 0.00 | 0.00 | 0.00 | 38 | 1017.7 |
| 20260502183029 | 61 | 315 | 8.7 | 13.9 | 0.00 | 0.00 | 0.00 | 39 | 1018.0 |
| 20260502181534 | 61 | 314 | 7.8 | 13.0 | 0.00 | 0.00 | 0.00 | 37 | 1018.0 |
| 20260502163028 | 61 | 290 | 8.7 | 13.0 | 0.00 | 0.00 | 0.00 | 35 | 1018.0 |
| 20260502161530 | 61 | 289 | 8.7 | 12.2 | 0.00 | 0.00 | 0.00 | 34 | 1017.9 |
| 20260502151528 | 60 | 278 | 8.7 | 13.0 | 0.00 | 0.00 | 0.00 | 31 | 1017.2 |
| 20260502123028 | 43 | 280 | 3.5 | 6.1 | 0.00 | 0.00 | 0.00 | 49 | 1016.4 |
| 20260502121531 | 45 | 280 | 3.5 | 7.0 | 0.00 | 0.00 | 0.00 | 45 | 1016.4 |
| 20260502114529 | 47 | 280 | 5.2 | 8.7 | 0.00 | 0.00 | 0.00 | 42 | 1016.2 |
| 20260502113028 | 47 | 280 | 7.0 | 8.7 | 0.00 | 0.00 | 0.00 | 42 | 1016.0 |
| 20260502111530 | 46 | 280 | 7.0 | 8.7 | 0.00 | 0.00 | 0.00 | 42 | 1016.1 |
| 20260502110031 | 46 | 280 | 7.0 | 8.7 | 0.00 | 0.00 | 0.00 | 43 | 1016.1 |
| 20260502104530 | 45 | 280 | 6.1 | 7.8 | 0.00 | 0.00 | 0.00 | 44 | 1016.1 |
| 20260502103031 | 46 | 280 | 2.6 | 3.5 | 0.00 | 0.00 | 0.00 | 43 | 1016.1 |
| 20260502101535 | 48 | 280 | 6.1 | 8.7 | 0.00 | 0.00 | 0.00 | 41 | 1016.3 |
| 20260502091530 | 47 | 280 | 7.8 | 9.6 | 0.00 | 0.00 | 0.00 | 42 | 1015.9 |
| 20260502071529 | 47 | 281 | 4.3 | 7.0 | 0.00 | 0.00 | 0.00 | 44 | 1016.4 |
| 20260502070028 | 48 | 281 | 6.1 | 8.7 | 0.00 | 0.00 | 0.00 | 42 | 1016.5 |
| 20260502064541 | 50 | 281 | 3.5 | 7.8 | 0.00 | 0.00 | 0.00 | 39 | 1016.3 |
| 20260502063035 | 51 | 0 | 0.0 | 5.2 | 0.00 | 0.00 | 0.00 | 37 | 1016.3 |
| 20260502061530 | 52 | 281 | 1.7 | 6.1 | 0.00 | 0.00 | 0.00 | 37 | 1016.4 |
| 20260502060029 | 51 | 0 | 0.0 | 0.0 | 0.00 | 0.00 | 0.00 | 41 | 1016.5 |
| 20260502054530 | 51 | 0 | 0.0 | 0.9 | 0.00 | 0.00 | 0.00 | 42 | 1016.5 |
| 20260502053028 | 51 | 0 | 0.0 | 0.0 | 0.00 | 0.00 | 0.00 | 46 | 1016.6 |
| 20260502051532 | 51 | 0 | 0.0 | 0.0 | 0.00 | 0.00 | 0.00 | 46 | 1016.6 |
| 20260502050028 | 51 | 0 | 0.0 | 0.0 | 0.00 | 0.00 | 0.00 | 47 | 1016.7 |
| 20260502044536 | 51 | 0 | 0.0 | 0.0 | 0.00 | 0.00 | 0.00 | 47 | 1016.7 |
| 20260502043028 | 52 | 0 | 0.0 | 0.0 | 0.00 | 0.00 | 0.00 | 45 | 1016.7 |
| 20260502041530 | 53 | 0 | 0.0 | 0.0 | 0.00 | 0.00 | 0.00 | 43 | 1016.7 |
| 20260502040039 | 55 | 0 | 0.0 | 0.0 | 0.00 | 0.00 | 0.00 | 38 | 1016.6 |
| 20260502034530 | 56 | 0 | 0.0 | 0.0 | 0.00 | 0.00 | 0.00 | 34 | 1016.6 |
| 20260502033030 | 57 | 0 | 0.0 | 0.9 | 0.00 | 0.00 | 0.00 | 33 | 1016.5 |
| 20260502031528 | 57 | 281 | 1.7 | 3.5 | 0.00 | 0.00 | 0.00 | 32 | 1016.4 |
| 20260502030030 | 58 | 0 | 0.0 | 0.0 | 0.00 | 0.00 | 0.00 | 33 | 1016.2 |
| 20260502024531 | 58 | 0 | 0.0 | 0.9 | 0.00 | 0.00 | 0.00 | 33 | 1016.1 |
| 20260502023028 | 59 | 0 | 0.0 | 0.9 | 0.00 | 0.00 | 0.00 | 33 | 1016.1 |
| 20260502021529 | 60 | 0 | 0.0 | 1.7 | 0.00 | 0.00 | 0.00 | 33 | 1016.1 |
| 20260502020028 | 63 | 0 | 0.0 | 0.9 | 0.00 | 0.00 | 0.00 | 33 | 1016.2 |
| 20260502014540 | 65 | 0 | 0.0 | 0.9 | 0.00 | 0.00 | 0.00 | 29 | 1016.2 |
| 20260502013028 | 67 | 281 | 2.6 | 8.7 | 0.00 | 0.00 | 0.00 | 25 | 1016.2 |
| 20260502011526 | 69 | 280 | 0.0 | 6.1 | 0.00 | 0.00 | 0.00 | 18 | 1016.2 |
| 20260502010033 | 69 | 280 | 3.5 | 7.0 | 0.00 | 0.00 | 0.00 | 17 | 1016.2 |
| 20260502004533 | 70 | 280 | 3.5 | 6.1 | 0.00 | 0.00 | 0.00 | 16 | 1016.4 |
| 20260502003027 | 70 | 0 | 0.0 | 0.0 | 0.00 | 0.00 | 0.00 | 19 | 1016.4 |
| 20260502001540 | 69 | 280 | 3.5 | 8.7 | 0.00 | 0.00 | 0.00 | 17 | 1016.7 |
| 20260502000027 | 70 | 280 | 3.5 | 9.6 | 0.00 | 0.00 | 0.00 | 16 | 1016.7 |
| 20260501234528 | 70 | 0 | 0.0 | 8.7 | 0.00 | 0.00 | 0.00 | 18 | 1016.6 |
| 20260501233028 | 71 | 0 | 0.0 | 5.2 | 0.00 | 0.00 | 0.00 | 18 | 1016.7 |
| 20260501231529 | 70 | 0 | 0.0 | 5.2 | 0.00 | 0.00 | 0.00 | 18 | 1016.8 |
| 20260501230030 | 69 | 280 | 2.6 | 8.7 | 0.00 | 0.00 | 0.00 | 17 | 1016.8 |
| 20260501224527 | 70 | 280 | 4.3 | 7.8 | 0.00 | 0.00 | 0.00 | 20 | 1017.0 |
| 20260501223030 | 70 | 280 | 7.0 | 14.8 | 0.00 | 0.00 | 0.00 | 20 | 1017.0 |
| 20260501221528 | 69 | 281 | 0.0 | 8.7 | 0.00 | 0.00 | 0.00 | 21 | 1017.1 |
| 20260501220030 | 69 | 281 | 0.9 | 11.3 | 0.00 | 0.00 | 0.00 | 20 | 1017.3 |
| 20260501214528 | 69 | 0 | 2.6 | 8.7 | 0.00 | 0.00 | 0.00 | 21 | 1017.4 |
| 20260501213029 | 68 | 0 | 0.0 | 7.8 | 0.00 | 0.00 | 0.00 | 20 | 1017.6 |
| 20260501211532 | 69 | 0 | 2.6 | 8.7 | 0.00 | 0.00 | 0.00 | 24 | 1017.8 |
| 20260501210033 | 68 | 0 | 0.0 | 12.2 | 0.00 | 0.00 | 0.00 | 22 | 1017.9 |
| 20260501204531 | 68 | 284 | 3.5 | 12.2 | 0.00 | 0.00 | 0.00 | 22 | 1017.7 |
| 20260501203034 | 67 | 291 | 0.0 | 9.6 | 0.00 | 0.00 | 0.00 | 21 | 1017.8 |
| 20260501201529 | 67 | 290 | 7.0 | 13.0 | 0.00 | 0.00 | 0.00 | 24 | 1017.9 |
| 20260501200031 | 67 | 284 | 6.1 | 12.2 | 0.00 | 0.00 | 0.00 | 23 | 1017.8 |